,,,PA_Meas_PMT16A,,PR_Meas_QMR101_102,,RH_Meas_QMH101,,SR_Meas_QMS101,,TA_Meas_QMH101,,GenWind,,GenWind,
date,time,status,PA,status,PR,status,RH,status,SR,status,TA,status,DirAvg,status,SpdAvg,
2012-07-18, 08:26:05,INVALID - VALUE NOT AVAILABLE,0,INVALID - VALUE NOT AVAILABLE,0,INVALID - VALUE NOT AVAILABLE,0,INVALID - VALUE NOT AVAILABLE,0,INVALID - VALUE NOT AVAILABLE,0,INVALID,360,INVALID,0,
2012-07-18, 10:43:05,INVALID - VALUE NOT AVAILABLE,0,INVALID - VALUE NOT AVAILABLE,0,INVALID - VALUE NOT AVAILABLE,0,INVALID - VALUE NOT AVAILABLE,0,INVALID - VALUE NOT AVAILABLE,0,INVALID,360,INVALID,0,
2012-07-18, 11:12:05,VALID,1004.43,VALID,0,VALID,89.38,VALID,122.589,VALID,25.9797,VALID,263,VALID,0,
2012-07-18, 11:13:05,VALID,1004.43,VALID,0,VALID,88.2356,VALID,126.909,VALID,25.9408,VALID,250,VALID,0,
2012-07-18, 11:14:05,VALID,1004.44,VALID,0,VALID,88.3882,VALID,131.637,VALID,25.9427,VALID,250,VALID,0,
2012-07-18, 11:15:05,VALID,1004.42,VALID,0,VALID,88.3348,VALID,136.609,VALID,25.9622,VALID,241,VALID,0,
2012-07-18, 11:16:05,VALID,1004.41,VALID,0,VALID,88.8841,VALID,141.907,VALID,26.0031,VALID,237,VALID,0,
2012-07-18, 11:17:05,VALID,1004.41,VALID,0,VALID,88.9833,VALID,147.45,VALID,26.0031,VALID,237,VALID,0,
2012-07-18, 11:18:05,VALID,1004.39,VALID,0,VALID,89.2732,VALID,153.074,VALID,26.0421,VALID,237,VALID,0,
2012-07-18, 11:19:05,VALID,1004.41,VALID,0,VALID,88.8002,VALID,159.024,VALID,26.0401,VALID,237,VALID,0,
2012-07-18, 11:20:05,VALID,1004.4,VALID,0,VALID,89.4868,VALID,165.382,VALID,26.12,VALID,237,VALID,0,
2012-07-18, 11:21:05,VALID,1004.39,VALID,0,VALID,89.8377,VALID,172.065,VALID,26.1765,VALID,237,VALID,0,
2012-07-18, 11:22:05,VALID,1004.37,VALID,0,VALID,88.5866,VALID,179.157,VALID,26.157,VALID,237,VALID,0,
2012-07-18, 11:23:05,VALID,1004.34,VALID,0,VALID,88.5713,VALID,186.655,VALID,26.1959,VALID,237,VALID,0,
2012-07-18, 11:24:05,VALID,1004.35,VALID,0,VALID,87.6101,VALID,194.48,VALID,26.2349,VALID,237,VALID,0,
2012-07-18, 11:25:05,VALID,1004.3,VALID,0,VALID,87.4804,VALID,202.55,VALID,26.2953,VALID,233,VALID,0,
2012-07-18, 11:26:05,VALID,1004.27,VALID,0,VALID,86.8701,VALID,210.864,VALID,26.3343,VALID,231,VALID,0,
2012-07-18, 11:27:05,VALID,1004.25,VALID,0,VALID,87.549,VALID,219.422,VALID,26.3713,VALID,225,VALID,0,
2012-07-18, 11:28:05,VALID,1004.24,VALID,0,VALID,87.427,VALID,228.306,VALID,26.4082,VALID,225,VALID,0,
2012-07-18, 11:29:05,VALID,1004.21,VALID,0,VALID,87.0532,VALID,237.925,VALID,26.4472,VALID,247,VALID,0.555469,
2012-07-18, 11:30:05,VALID,1004.18,VALID,0,VALID,86.6946,VALID,247.787,VALID,26.5251,VALID,248,VALID,0.0851562,
2012-07-18, 11:31:05,VALID,1004.17,VALID,0,VALID,85.2756,VALID,258.709,VALID,26.5466,VALID,232,VALID,0.671875,
2012-07-18, 11:32:05,VALID,1004.14,VALID,0,VALID,86.4734,VALID,270.61,VALID,26.5835,VALID,230,VALID,0.289453,
2012-07-18, 11:33:05,VALID,1004.1,VALID,0,VALID,85.1765,VALID,284.14,VALID,26.6245,VALID,264,VALID,0.241016,
2012-07-18, 11:34:05,VALID,1004.1,VALID,0,VALID,85.1459,VALID,299.056,VALID,26.7024,VALID,295,VALID,0.457812,
2012-07-18, 11:35:05,VALID,1004.07,VALID,0,VALID,84.2076,VALID,316.581,VALID,26.7783,VALID,240,VALID,0.677734,
2012-07-18, 11:36:05,VALID,1004.07,VALID,0,VALID,83.7193,VALID,341.278,VALID,26.7978,VALID,188,VALID,0.509375,
2012-07-18, 11:37:05,VALID,1004.07,VALID,0,VALID,81.4078,VALID,367.85,VALID,26.8778,VALID,230,VALID,0.794922,
2012-07-18, 11:38:05,VALID,1004.05,VALID,0,VALID,81.3773,VALID,392.873,VALID,26.8778,VALID,283,VALID,0.951563,
2012-07-18, 11:39:05,VALID,1004.03,VALID,0,VALID,83.4065,VALID,413.169,VALID,26.9537,VALID,298,VALID,0.415234,
2012-07-18, 11:40:05,VALID,1004.03,VALID,0,VALID,82.0639,VALID,430.775,VALID,27.0726,VALID,253,VALID,0.264062,
2012-07-18, 11:41:05,VALID,1004.01,VALID,0,VALID,84.6729,VALID,439.659,VALID,27.1485,VALID,238,VALID,0.30625,
2012-07-18, 11:42:05,VALID,1004.03,VALID,0,VALID,82.3309,VALID,449.848,VALID,27.2459,VALID,244,VALID,0.248437,
2012-07-18, 11:43:05,VALID,1004.02,VALID,0,VALID,80.9806,VALID,451.07,VALID,27.3844,VALID,244,VALID,0,
2012-07-18, 11:44:05,VALID,1004.01,VALID,0,VALID,76.7542,VALID,451.559,VALID,27.4233,VALID,223,VALID,1.00352,
2012-07-18, 11:45:05,VALID,1004.02,VALID,0,VALID,76.2964,VALID,448.544,VALID,27.4254,VALID,232,VALID,0.945313,
2012-07-18, 11:46:05,VALID,1004.01,VALID,0,VALID,76.716,VALID,446.18,VALID,27.3454,VALID,233,VALID,1.45859,
2012-07-18, 11:47:05,VALID,1004.01,VALID,0,VALID,78.7911,VALID,451.804,VALID,27.3259,VALID,223,VALID,0.869141,
2012-07-18, 11:48:05,VALID,1004.04,VALID,0,VALID,79.1496,VALID,459.058,VALID,27.3064,VALID,235,VALID,0.885547,
2012-07-18, 11:49:05,VALID,1004.02,VALID,0,VALID,78.1884,VALID,438.11,VALID,27.3064,VALID,222,VALID,1.28672,
2012-07-18, 11:50:05,VALID,1004.06,VALID,0,VALID,78.5698,VALID,419.363,VALID,27.2869,VALID,295,VALID,0.946094,
2012-07-18, 11:51:05,VALID,1004.04,VALID,0,VALID,80.5991,VALID,406.322,VALID,27.3454,VALID,220,VALID,0.744922,
2012-07-18, 11:52:05,VALID,1004.03,VALID,0,VALID,78.5851,VALID,428.574,VALID,27.4254,VALID,299,VALID,0.676562,
2012-07-18, 11:53:05,VALID,1004.04,VALID,0,VALID,78.8063,VALID,446.669,VALID,27.5208,VALID,236,VALID,0.599609,
2012-07-18, 11:54:05,VALID,1004.02,VALID,0,VALID,78.8674,VALID,459.303,VALID,27.6203,VALID,220,VALID,1.26016,
2012-07-18, 11:55:05,VALID,1004.04,VALID,0,VALID,78.5317,VALID,472.589,VALID,27.6008,VALID,208,VALID,1.25039,
2012-07-18, 11:56:05,VALID,1004.03,VALID,0,VALID,78.2647,VALID,482.859,VALID,27.5987,VALID,179,VALID,1.03906,
2012-07-18, 11:57:04,VALID,1004,VALID,0,VALID,78.7529,VALID,485.223,VALID,27.5792,VALID,179,VALID,0.830078,
2012-07-18, 11:58:04,VALID,1003.98,VALID,0,VALID,77.7078,VALID,480.984,VALID,27.6182,VALID,199,VALID,0.935547,
2012-07-18, 11:59:04,VALID,1003.96,VALID,0,VALID,79.6608,VALID,507.311,VALID,27.6962,VALID,223,VALID,0.391406,
2012-07-18, 12:00:04,VALID,1003.96,VALID,0,VALID,78.547,VALID,524.999,VALID,27.8326,VALID,175,VALID,1.09414,
2012-07-18, 12:01:04,VALID,1003.95,VALID,0,VALID,76.9373,VALID,531.846,VALID,27.8716,VALID,226,VALID,1.43477,
2012-07-18, 12:02:04,VALID,1003.93,VALID,0,VALID,78.4249,VALID,531.194,VALID,27.8521,VALID,186,VALID,1.16562,
2012-07-18, 12:03:04,VALID,1003.9,VALID,0,VALID,79.6684,VALID,503.644,VALID,27.8131,VALID,213,VALID,0.946094,
2012-07-18, 12:04:04,VALID,1003.89,VALID,0,VALID,78.3639,VALID,507.638,VALID,27.8716,VALID,225,VALID,0.151953,
2012-07-18, 12:05:04,VALID,1003.87,VALID,0,VALID,75.1521,VALID,471.203,VALID,27.8932,VALID,185,VALID,1.51406,
2012-07-18, 12:06:04,VALID,1003.87,VALID,0,VALID,78.9284,VALID,509.838,VALID,27.7957,VALID,207,VALID,0.801953,
2012-07-18, 12:07:04,VALID,1003.84,VALID,0,VALID,78.814,VALID,506.822,VALID,27.7741,VALID,174,VALID,0.692969,
2012-07-18, 12:08:04,VALID,1003.84,VALID,0,VALID,80.6983,VALID,488.89,VALID,27.8737,VALID,270,VALID,0.641797,
2012-07-18, 12:09:04,VALID,1003.8,VALID,0,VALID,74.0383,VALID,472.996,VALID,27.9321,VALID,236,VALID,0.5875,
2012-07-18, 12:10:04,VALID,1003.79,VALID,0,VALID,77.5323,VALID,459.629,VALID,28.0296,VALID,256,VALID,0.567578,
2012-07-18, 12:11:04,VALID,1003.75,VALID,0,VALID,73.7102,VALID,451.233,VALID,27.9906,VALID,224,VALID,1.22539,
2012-07-18, 12:12:04,VALID,1003.75,VALID,0,VALID,76.7542,VALID,451.233,VALID,27.8911,VALID,209,VALID,1.35664,
2012-07-18, 12:13:04,VALID,1003.75,VALID,0,VALID,75.2131,VALID,454.331,VALID,27.8347,VALID,184,VALID,0.916797,
2012-07-18, 12:14:04,VALID,1003.72,VALID,0,VALID,76.3346,VALID,465.742,VALID,27.8716,VALID,214,VALID,0.635938,
2012-07-18, 12:15:04,VALID,1003.75,VALID,0,VALID,77.0593,VALID,477.072,VALID,27.9321,VALID,226,VALID,0.883984,
2012-07-18, 12:16:04,VALID,1003.73,VALID,0,VALID,75.0834,VALID,434.116,VALID,27.8716,VALID,202,VALID,1.81953,
2012-07-18, 12:17:04,VALID,1003.74,VALID,0,VALID,76.8457,VALID,416.266,VALID,27.7567,VALID,183,VALID,1.99063,
2012-07-18, 12:18:04,VALID,1003.74,VALID,0,VALID,76.7389,VALID,408.441,VALID,27.6008,VALID,183,VALID,1.7125,
2012-07-18, 12:19:04,VALID,1003.74,VALID,0,VALID,78.7834,VALID,405.099,VALID,27.5618,VALID,169,VALID,0.702734,
2012-07-18, 12:20:04,VALID,1003.7,VALID,0,VALID,76.4795,VALID,401.35,VALID,27.5403,VALID,217,VALID,1.36094,
2012-07-18, 12:21:04,VALID,1003.69,VALID,0,VALID,75.6785,VALID,397.682,VALID,27.5618,VALID,193,VALID,1.52734,
2012-07-18, 12:22:04,VALID,1003.68,VALID,0,VALID,75.442,VALID,392.547,VALID,27.5424,VALID,221,VALID,1.61523,
2012-07-18, 12:23:04,VALID,1003.63,VALID,0,VALID,76.7923,VALID,386.515,VALID,27.4839,VALID,216,VALID,1.51172,
2012-07-18, 12:24:04,VALID,1003.64,VALID,0,VALID,77.3111,VALID,380.565,VALID,27.4644,VALID,226,VALID,0.733984,
2012-07-18, 12:25:04,VALID,1003.6,VALID,0,VALID,77.2195,VALID,375.186,VALID,27.5618,VALID,252,VALID,0.626562,
2012-07-18, 12:26:04,VALID,1003.61,VALID,0,VALID,75.8997,VALID,370.784,VALID,27.6182,VALID,225,VALID,1.01172,
2012-07-18, 12:27:04,VALID,1003.59,VALID,0,VALID,76.0981,VALID,366.546,VALID,27.6767,VALID,235,VALID,1.01406,
2012-07-18, 12:28:04,VALID,1003.58,VALID,0,VALID,76.5406,VALID,362.307,VALID,27.7762,VALID,236,VALID,0.973828,
2012-07-18, 12:29:04,VALID,1003.6,VALID,0,VALID,78.0282,VALID,357.906,VALID,27.8347,VALID,214,VALID,0.198437,
2012-07-18, 12:30:04,VALID,1003.58,VALID,0,VALID,75.4115,VALID,353.178,VALID,27.8737,VALID,206,VALID,0.961328,
2012-07-18, 12:31:04,VALID,1003.58,VALID,0,VALID,76.0218,VALID,348.532,VALID,27.7372,VALID,178,VALID,1.04102,
2012-07-18, 12:32:04,VALID,1003.56,VALID,0,VALID,75.9302,VALID,344.375,VALID,27.5813,VALID,181,VALID,1.32891,
2012-07-18, 12:33:04,VALID,1003.55,VALID,0,VALID,78.0663,VALID,340.463,VALID,27.5229,VALID,178,VALID,0.955859,
2012-07-18, 12:34:04,VALID,1003.56,VALID,0,VALID,79.1344,VALID,335.98,VALID,27.4839,VALID,147,VALID,1.24258,
2012-07-18, 12:35:04,VALID,1003.56,VALID,0,VALID,77.2882,VALID,334.431,VALID,27.5034,VALID,176,VALID,1.53828,
2012-07-18, 12:36:04,VALID,1003.54,VALID,0,VALID,75.7166,VALID,333.208,VALID,27.4254,VALID,176,VALID,1.97852,
2012-07-18, 12:37:04,VALID,1003.5,VALID,0,VALID,76.983,VALID,333.534,VALID,27.3865,VALID,198,VALID,0.670703,
2012-07-18, 12:38:04,VALID,1003.51,VALID,0,VALID,78.0968,VALID,332.23,VALID,27.4254,VALID,216,VALID,1.25937,
2012-07-18, 12:39:04,VALID,1003.52,VALID,0,VALID,77.395,VALID,331.497,VALID,27.4623,VALID,222,VALID,1.24609,
2012-07-18, 12:40:04,VALID,1003.45,VALID,0,VALID,78.1884,VALID,330.519,VALID,27.4644,VALID,177,VALID,0.950781,
2012-07-18, 12:41:04,VALID,1003.44,VALID,0,VALID,77.0135,VALID,331.66,VALID,27.5034,VALID,209,VALID,0.928516,
2012-07-18, 12:42:04,VALID,1003.45,VALID,0,VALID,75.0377,VALID,334.757,VALID,27.5208,VALID,217,VALID,0.605859,
2012-07-18, 12:43:04,VALID,1003.42,VALID,0,VALID,74.8469,VALID,338.833,VALID,27.5208,VALID,222,VALID,1.3418,
2012-07-18, 12:44:04,VALID,1003.41,VALID,0,VALID,75.2894,VALID,343.805,VALID,27.4818,VALID,176,VALID,0.574609,
2012-07-18, 12:45:04,VALID,1003.38,VALID,0,VALID,77.334,VALID,349.021,VALID,27.5208,VALID,223,VALID,0.821875,
2012-07-18, 12:46:04,VALID,1003.38,VALID,0,VALID,75.3733,VALID,355.542,VALID,27.6203,VALID,286,VALID,0.669141,
2012-07-18, 12:47:04,VALID,1003.39,VALID,0,VALID,73.7636,VALID,363.041,VALID,27.6788,VALID,199,VALID,1.26055,
2012-07-18, 12:48:04,VALID,1003.38,VALID,0,VALID,73.9315,VALID,370.54,VALID,27.5792,VALID,164,VALID,0.382422,
2012-07-18, 12:49:04,VALID,1003.38,VALID,0,VALID,76.4032,VALID,379.832,VALID,27.5382,VALID,132,VALID,0.197656,
2012-07-18, 12:50:04,VALID,1003.39,VALID,0,VALID,75.3886,VALID,393.362,VALID,27.6377,VALID,210,VALID,0.666797,
2012-07-18, 12:51:04,VALID,1003.39,VALID,0,VALID,73.9544,VALID,401.839,VALID,27.6551,VALID,233,VALID,0.0242187,
2012-07-18, 12:52:04,VALID,1003.39,VALID,0,VALID,74.435,VALID,405.181,VALID,27.7567,VALID,348,VALID,0.3125,
2012-07-18, 12:53:04,VALID,1003.38,VALID,0,VALID,75.1521,VALID,421.157,VALID,27.85,VALID,247,VALID,0.257031,
2012-07-18, 12:54:04,VALID,1003.4,VALID,0,VALID,73.4051,VALID,432.079,VALID,28.008,VALID,241,VALID,0.362109,
2012-07-18, 12:55:04,VALID,1003.39,VALID,0,VALID,73.9925,VALID,433.709,VALID,28.1855,VALID,4,VALID,0.527344,
2012-07-18, 12:56:04,VALID,1003.4,VALID,0,VALID,73.817,VALID,445.12,VALID,28.3393,VALID,339,VALID,0.415625,
2012-07-18, 12:57:04,VALID,1003.4,VALID,0,VALID,74.9766,VALID,426.781,VALID,28.4974,VALID,339,VALID,0.292969,
2012-07-18, 12:58:04,VALID,1003.42,VALID,0,VALID,73.3288,VALID,444.957,VALID,28.5169,VALID,194,VALID,0.914453,
2012-07-18, 12:59:04,VALID,1003.43,VALID,0,VALID,74.2214,VALID,458.406,VALID,28.4411,VALID,180,VALID,0.35,
2012-07-18, 13:00:04,VALID,1003.4,VALID,0,VALID,71.5055,VALID,442.023,VALID,28.4411,VALID,166,VALID,1.02109,
2012-07-18, 13:01:04,VALID,1003.42,VALID,0,VALID,71.3071,VALID,414.636,VALID,28.2072,VALID,147,VALID,1.41289,
2012-07-18, 13:02:04,VALID,1003.42,VALID,0,VALID,75.0453,VALID,425.477,VALID,28.0317,VALID,127,VALID,1.12812,
2012-07-18, 13:03:04,VALID,1003.45,VALID,0,VALID,76.2735,VALID,417.407,VALID,28.0512,VALID,102,VALID,1.48555,
2012-07-18, 13:04:04,VALID,1003.45,VALID,0,VALID,72.5583,VALID,423.113,VALID,27.8152,VALID,125,VALID,1.55703,
2012-07-18, 13:05:04,VALID,1003.44,VALID,0,VALID,76.8305,VALID,470.551,VALID,27.7783,VALID,128,VALID,1.02148,
2012-07-18, 13:06:04,VALID,1003.45,VALID,0,VALID,73.0923,VALID,453.108,VALID,27.6788,VALID,139,VALID,1.41367,
2012-07-18, 13:07:04,VALID,1003.41,VALID,0,VALID,72.7261,VALID,474.219,VALID,27.6224,VALID,135,VALID,0.641406,
2012-07-18, 13:08:04,VALID,1003.41,VALID,0,VALID,73.2983,VALID,499.813,VALID,27.6008,VALID,122,VALID,0.216016,
2012-07-18, 13:09:04,VALID,1003.38,VALID,0,VALID,73.7636,VALID,507.23,VALID,27.7178,VALID,109,VALID,0.962109,
2012-07-18, 13:10:04,VALID,1003.4,VALID,0,VALID,78.7224,VALID,548.799,VALID,27.8542,VALID,107,VALID,0.679688,
2012-07-18, 13:11:04,VALID,1003.39,VALID,0,VALID,73.2144,VALID,599.498,VALID,27.9711,VALID,141,VALID,0.763672,
2012-07-18, 13:12:04,VALID,1003.34,VALID,0,VALID,73.161,VALID,629.575,VALID,27.9885,VALID,102,VALID,1.22109,
2012-07-18, 13:13:04,VALID,1003.33,VALID,0,VALID,71.948,VALID,668.129,VALID,27.9516,VALID,96,VALID,0.741016,
2012-07-18, 13:14:04,VALID,1003.31,VALID,0,VALID,73.3669,VALID,672.449,VALID,28.0296,VALID,168,VALID,0.689453,
2012-07-18, 13:15:04,VALID,1003.31,VALID,0,VALID,73.4737,VALID,688.343,VALID,28.166,VALID,218,VALID,1.01602,
2012-07-18, 13:16:04,VALID,1003.23,VALID,0,VALID,71.1164,VALID,724.125,VALID,28.2029,VALID,198,VALID,1.8125,
2012-07-18, 13:17:04,VALID,1003.24,VALID,0,VALID,72.7032,VALID,636.666,VALID,28.1271,VALID,156,VALID,0.842188,
2012-07-18, 13:18:04,VALID,1003.2,VALID,0,VALID,73.1915,VALID,554.668,VALID,28.0881,VALID,113,VALID,1.15703,
2012-07-18, 13:19:04,VALID,1003.16,VALID,0,VALID,71.9861,VALID,683.534,VALID,27.969,VALID,108,VALID,1.16094,
2012-07-18, 13:20:04,VALID,1003.14,VALID,0,VALID,71.948,VALID,683.697,VALID,28.0881,VALID,78,VALID,0.825391,
2012-07-18, 13:21:04,VALID,1003.1,VALID,0,VALID,73.5272,VALID,684.186,VALID,28.2809,VALID,61,VALID,0.794141,
2012-07-18, 13:22:04,VALID,1003.07,VALID,0,VALID,69.9339,VALID,643.024,VALID,28.4368,VALID,206,VALID,1.25781,
2012-07-18, 13:23:04,VALID,1003.06,VALID,0,VALID,71.5436,VALID,579.202,VALID,28.4779,VALID,184,VALID,1.46953,
2012-07-18, 13:24:04,VALID,1003.05,VALID,0,VALID,70.0713,VALID,505.192,VALID,28.3805,VALID,162,VALID,0.316016,
2012-07-18, 13:25:04,VALID,1003.01,VALID,0,VALID,71.1164,VALID,439.904,VALID,28.4779,VALID,168,VALID,0.546484,
2012-07-18, 13:26:04,VALID,1003,VALID,0,VALID,71.4674,VALID,450.092,VALID,28.5581,VALID,156,VALID,1.05,
2012-07-18, 13:27:04,VALID,1002.99,VALID,0,VALID,70.6968,VALID,497.041,VALID,28.4194,VALID,175,VALID,1.00234,
2012-07-18, 13:28:04,VALID,1002.93,VALID,0,VALID,70.9028,VALID,504.54,VALID,28.322,VALID,170,VALID,0.827344,
2012-07-18, 13:29:04,VALID,1002.89,VALID,0,VALID,71.6352,VALID,592.244,VALID,28.322,VALID,228,VALID,0.802734,
2012-07-18, 13:30:04,VALID,1002.87,VALID,0,VALID,72.215,VALID,576.92,VALID,28.361,VALID,238,VALID,0.731641,
2012-07-18, 13:31:04,VALID,1002.84,VALID,0,VALID,72.2379,VALID,589.88,VALID,28.5581,VALID,234,VALID,0.810938,
2012-07-18, 13:32:04,VALID,1002.79,VALID,0,VALID,71.742,VALID,638.867,VALID,28.6144,VALID,238,VALID,0.397656,
2012-07-18, 13:33:04,VALID,1002.79,VALID,0,VALID,70.7579,VALID,602.595,VALID,28.6924,VALID,272,VALID,0.573047,
2012-07-18, 13:34:04,VALID,1002.75,VALID,0,VALID,70.674,VALID,616.778,VALID,28.7704,VALID,292,VALID,0.528516,
2012-07-18, 13:35:04,VALID,1002.75,VALID,0,VALID,71.6657,VALID,653.131,VALID,28.9653,VALID,292,VALID,0.285156,
2012-07-18, 13:36:04,VALID,1002.71,VALID,0,VALID,70.7121,VALID,430.938,VALID,29.1798,VALID,291,VALID,0.373437,
2012-07-18, 13:37:04,VALID,1002.71,VALID,0,VALID,68.5913,VALID,580.833,VALID,29.2188,VALID,151,VALID,0.461719,
2012-07-18, 13:38:04,VALID,1002.68,VALID,0,VALID,69.5601,VALID,370.458,VALID,29.1018,VALID,188,VALID,1.80313,
2012-07-18, 13:39:04,VALID,1002.64,VALID,0,VALID,70.9486,VALID,601.047,VALID,28.9285,VALID,217,VALID,0.524609,
2012-07-18, 13:40:04,VALID,1002.65,VALID,0,VALID,70.857,VALID,516.033,VALID,28.909,VALID,201,VALID,0.626953,
2012-07-18, 13:41:04,VALID,1002.62,VALID,0,VALID,74.0307,VALID,594.852,VALID,28.9436,VALID,266,VALID,0.407813,
2012-07-18, 13:42:04,VALID,1002.57,VALID,0,VALID,70.8876,VALID,630.797,VALID,29.1213,VALID,299,VALID,0.547656,
2012-07-18, 13:43:04,VALID,1002.58,VALID,0,VALID,71.0401,VALID,644.491,VALID,29.3358,VALID,240,VALID,0.445313,
2012-07-18, 13:44:04,VALID,1002.56,VALID,0,VALID,67.5308,VALID,721.68,VALID,29.4745,VALID,291,VALID,1.49063,
2012-07-18, 13:45:04,VALID,1002.54,VALID,0,VALID,70.1704,VALID,706.03,VALID,29.5308,VALID,268,VALID,0.284766,
2012-07-18, 13:46:04,VALID,1002.48,VALID,0,VALID,66.1882,VALID,692.337,VALID,29.6088,VALID,222,VALID,1.59922,
2012-07-18, 13:47:04,VALID,1002.5,VALID,0,VALID,66.1577,VALID,680.436,VALID,29.221,VALID,173,VALID,1.43398,
2012-07-18, 13:48:04,VALID,1002.46,VALID,0,VALID,66.684,VALID,634.058,VALID,28.9848,VALID,351,VALID,0.415625,
2012-07-18, 13:49:04,VALID,1002.49,VALID,0,VALID,68.5913,VALID,634.221,VALID,28.9458,VALID,206,VALID,1.09453,
2012-07-18, 13:50:04,VALID,1002.52,VALID,0,VALID,67.981,VALID,573.415,VALID,28.8873,VALID,159,VALID,0.789844,
2012-07-18, 13:51:04,VALID,1002.51,VALID,0,VALID,67.9276,VALID,618.979,VALID,28.7725,VALID,237,VALID,1.18711,
2012-07-18, 13:52:04,VALID,1002.51,VALID,0,VALID,69.2855,VALID,631.45,VALID,28.7725,VALID,214,VALID,0.958594,
2012-07-18, 13:53:04,VALID,1002.5,VALID,0,VALID,72.7719,VALID,606.019,VALID,28.7487,VALID,177,VALID,0.761328,
2012-07-18, 13:54:04,VALID,1002.49,VALID,0,VALID,69.4686,VALID,616.044,VALID,28.7704,VALID,227,VALID,1.31914,
2012-07-18, 13:55:04,VALID,1002.46,VALID,0,VALID,72.1234,VALID,594.852,VALID,28.7898,VALID,205,VALID,0.848828,
2012-07-18, 13:56:04,VALID,1002.42,VALID,0,VALID,71.4674,VALID,566.487,VALID,28.8678,VALID,197,VALID,0.554297,
2012-07-18, 13:57:04,VALID,1002.41,VALID,0,VALID,69.3694,VALID,514.403,VALID,28.9675,VALID,191,VALID,1.18594,
2012-07-18, 13:58:04,VALID,1002.39,VALID,0,VALID,67.5995,VALID,495.33,VALID,28.87,VALID,170,VALID,1.23047,
2012-07-18, 13:59:04,VALID,1002.33,VALID,0,VALID,68.6523,VALID,521.25,VALID,28.714,VALID,173,VALID,0.720703,
2012-07-18, 14:00:04,VALID,1002.32,VALID,0,VALID,67.7445,VALID,491.254,VALID,28.714,VALID,236,VALID,0.958594,
2012-07-18, 14:01:04,VALID,1002.27,VALID,0,VALID,71.6352,VALID,472.752,VALID,28.5971,VALID,170,VALID,1.66367,
2012-07-18, 14:02:04,VALID,1002.28,VALID,0,VALID,71.8412,VALID,416.266,VALID,28.6339,VALID,192,VALID,1.45,
2012-07-18, 14:03:04,VALID,1002.25,VALID,0,VALID,69.6059,VALID,383.01,VALID,28.714,VALID,238,VALID,1.23828,
2012-07-18, 14:04:04,VALID,1002.24,VALID,0,VALID,69.5906,VALID,536.981,VALID,28.6361,VALID,216,VALID,1.31875,
2012-07-18, 14:05:04,VALID,1002.21,VALID,0,VALID,69.7356,VALID,383.255,VALID,28.5754,VALID,223,VALID,1.30313,
2012-07-18, 14:06:04,VALID,1002.2,VALID,0,VALID,69.7661,VALID,383.499,VALID,28.5191,VALID,203,VALID,1.68438,
2012-07-18, 14:07:04,VALID,1002.19,VALID,0,VALID,72.0243,VALID,371.11,VALID,28.4194,VALID,173,VALID,0.837891,
2012-07-18, 14:08:04,VALID,1002.18,VALID,0,VALID,70.5137,VALID,493.292,VALID,28.3826,VALID,118,VALID,0.890625,
2012-07-18, 14:09:04,VALID,1002.21,VALID,0,VALID,71.9098,VALID,487.749,VALID,28.3436,VALID,157,VALID,0.848047,
2012-07-18, 14:10:04,VALID,1002.2,VALID,0,VALID,74.0154,VALID,465.171,VALID,28.3631,VALID,151,VALID,1.31484,
2012-07-18, 14:11:04,VALID,1002.18,VALID,0,VALID,72.5888,VALID,443.082,VALID,28.4021,VALID,138,VALID,1.23516,
2012-07-18, 14:12:04,VALID,1002.2,VALID,0,VALID,71.6428,VALID,382.195,VALID,28.3805,VALID,153,VALID,1.28477,
2012-07-18, 14:13:04,VALID,1002.19,VALID,0,VALID,73.4585,VALID,392.791,VALID,28.3198,VALID,178,VALID,1.05938,
2012-07-18, 14:14:04,VALID,1002.17,VALID,0,VALID,73.3822,VALID,451.07,VALID,28.2635,VALID,188,VALID,1.76094,
2012-07-18, 14:15:04,VALID,1002.16,VALID,0,VALID,76.1515,VALID,456.042,VALID,28.2245,VALID,149,VALID,0.914844,
2012-07-18, 14:16:04,VALID,1002.13,VALID,0,VALID,75.5946,VALID,498.509,VALID,28.244,VALID,202,VALID,1.87188,
2012-07-18, 14:17:04,VALID,1002.15,VALID,0,VALID,73.2067,VALID,525.977,VALID,28.244,VALID,175,VALID,1.79297,
2012-07-18, 14:18:04,VALID,1002.16,VALID,0,VALID,74.0383,VALID,525.488,VALID,28.1639,VALID,161,VALID,0.904688,
2012-07-18, 14:19:04,VALID,1002.13,VALID,0,VALID,73.5043,VALID,520.19,VALID,28.166,VALID,188,VALID,1.61406,
2012-07-18, 14:20:04,VALID,1002.14,VALID,0,VALID,74.0154,VALID,664.461,VALID,28.1466,VALID,174,VALID,1.36367,
2012-07-18, 14:21:04,VALID,1002.12,VALID,0,VALID,74.9843,VALID,570.97,VALID,28.1855,VALID,163,VALID,1.03984,
2012-07-18, 14:22:04,VALID,1002.11,VALID,0,VALID,73.9239,VALID,541.464,VALID,28.244,VALID,194,VALID,1.44922,
2012-07-18, 14:23:04,VALID,1002.08,VALID,0,VALID,74.6181,VALID,561.27,VALID,28.322,VALID,229,VALID,1.20508,
2012-07-18, 14:24:04,VALID,1002.05,VALID,0,VALID,71.6199,VALID,539.508,VALID,28.322,VALID,188,VALID,1.14375,
2012-07-18, 14:25:04,VALID,1002.03,VALID,0,VALID,73.8018,VALID,590.532,VALID,28.322,VALID,222,VALID,1.12734,
2012-07-18, 14:26:04,VALID,1002.01,VALID,0,VALID,75.4115,VALID,542.605,VALID,28.4389,VALID,270,VALID,0.628516,
2012-07-18, 14:27:04,VALID,1001.98,VALID,0,VALID,72.5964,VALID,569.095,VALID,28.5754,VALID,230,VALID,1.35352,
2012-07-18, 14:28:04,VALID,1001.94,VALID,0,VALID,71.803,VALID,682.23,VALID,28.5949,VALID,232,VALID,0.666016,
2012-07-18, 14:29:04,VALID,1001.95,VALID,0,VALID,74.7783,VALID,712.469,VALID,28.6945,VALID,181,VALID,0.964844,
2012-07-18, 14:30:04,VALID,1001.92,VALID,0,VALID,71.002,VALID,677.502,VALID,28.714,VALID,201,VALID,1.15508,
2012-07-18, 14:31:04,VALID,1001.93,VALID,0,VALID,73.1915,VALID,635.933,VALID,28.7335,VALID,208,VALID,0.874219,
2012-07-18, 14:32:04,VALID,1001.93,VALID,0,VALID,72.8558,VALID,667.069,VALID,28.8115,VALID,219,VALID,0.860937,
2012-07-18, 14:33:04,VALID,1001.93,VALID,0,VALID,72.3447,VALID,648.159,VALID,28.7509,VALID,202,VALID,1.37539,
2012-07-18, 14:34:04,VALID,1001.92,VALID,0,VALID,73.0236,VALID,636.829,VALID,28.8115,VALID,223,VALID,1.27188,
2012-07-18, 14:35:04,VALID,1001.91,VALID,0,VALID,71.1622,VALID,695.597,VALID,28.9653,VALID,230,VALID,0.728906,
2012-07-18, 14:36:04,VALID,1001.94,VALID,0,VALID,72.1082,VALID,689.239,VALID,29.1235,VALID,220,VALID,0.78125,
2012-07-18, 14:37:04,VALID,1001.95,VALID,0,VALID,70.6892,VALID,619.875,VALID,29.3185,VALID,244,VALID,0.480859,
2012-07-18, 14:38:04,VALID,1001.93,VALID,0,VALID,68.988,VALID,703.829,VALID,29.494,VALID,222,VALID,0.311328,
2012-07-18, 14:39:04,VALID,1001.94,VALID,0,VALID,69.1939,VALID,686.876,VALID,29.5698,VALID,230,VALID,0.660156,
2012-07-18, 14:40:04,VALID,1001.92,VALID,0,VALID,69.0261,VALID,685.001,VALID,29.728,VALID,261,VALID,0.376172,
2012-07-18, 14:41:04,VALID,1001.92,VALID,0,VALID,69.3999,VALID,707.905,VALID,29.9231,VALID,230,VALID,0.215625,
2012-07-18, 14:42:04,VALID,1001.89,VALID,0,VALID,64.0139,VALID,669.514,VALID,30.1743,VALID,304,VALID,0.872656,